Regional Weather Roundup
Issued by NWS

Home | Current Version | Previous Version | Text Only | Print | Product List | Glossary Off
Versions: 1 2 3 4 5 6 7 8 9 10 11 12 13 14 15 16 17 18 19 20 21 22 23 24 25 26 27 28 29 30 31 32 33 34 35 36 37 38 39 40 41 42 43 44 45 46 47 48 49 50

000
ASUS45 KBOU 300707
RWRCO

WEATHER ROUNDUP FOR COLORADO
NATIONAL WEATHER SERVICE DENVER/BOULDER CO
100 AM MDT SUN AUG 30 2015

NOTE: "FAIR" INDICATES FEW OR NO CLOUDS BELOW 12000 FEET WITH NO
SIGNIFICANT WEATHER AND/OR OBSTRUCTIONS TO VISIBILITY.

COZ001>005-013-030-031-300800-
...NORTHWEST COLORADO...

CITY           SKY/WX    TMP DP  RH WIND       PRES   REMARKS
CRAIG          PTCLDY    51  44  77 CALM      30.18S
HAYDEN         NOT AVBL
MEEKER         PTCLDY    53  42  66 VRB3      30.21R
MOUNT WERNER   NOT AVBL
STEAMBOAT SPGS MOCLDY    53  39  59 NE3       30.24S
WALDEN         PTCLDY    43  34  70 E8        30.32F
$$

COZ006>008-011-300800-
...WEST CENTRAL VALLEYS...

CITY           SKY/WX    TMP DP  RH WIND       PRES   REMARKS
GRAND JUNCTION PTCLDY    72  41  32 E14       30.07R
MONTROSE       PTCLDY    64  43  46 SE8       30.19S
EAGLE          PTCLDY    55  43  62 S3        30.27S
RIFLE          PTCLDY    63  44  50 CALM      30.15S
DELTA          PTCLDY    66  46  48 E8        30.15S
NUCLA          PTCLDY    66  37  34 E10       30.23S
$$

COZ017>023-064>068-300800-
...SOUTHWEST COLORADO...

CITY           SKY/WX    TMP DP  RH WIND       PRES   REMARKS
DURANGO        CLEAR     56  45  66 CALM      30.30S
CORTEZ         MOCLDY    57  45  64 VRB3      30.20S
PAGOSA SPRINGS CLEAR     58  44  59 CALM      30.39S
TELLURIDE      CLEAR     55  40  56 SE7       30.47F
WOLF CREEK PAS CLEAR     45  37  76 SW18      30.71S
$$

COZ009-010-012-014-032>034-037-058>063-300800-
...CENTRAL COLORADO...

CITY           SKY/WX    TMP DP  RH WIND       PRES   REMARKS
ASPEN          PTCLDY    55  37  50 S8        30.34S
BUENA VISTA    PTCLDY    52  37  58 W5        30.38S
COPPER MTN     PTCLDY    54  32  43 S13G20    30.66F
BERTHOUD PASS  FAIR      45  32  61 SW6       30.71S
COTTONWOOD PAS PTCLDY    59  34  38 N3        30.51S
GUNNISON       CLEAR     52  37  58 NE8       30.39S
KREMMLING      PTCLDY    52  41  66 CALM      30.32S
LEADVILLE      PTCLDY    46  35  65 CALM      30.50S
MONARCH PASS   PTCLDY    50  34  53 W16       30.76F
SALIDA         PTCLDY    62  44  50 W3        30.41S
SUNLIGHT       PTCLDY    54  32  43 CALM      30.58S
WILKERSON PASS PTCLDY    50  32  50 SW6       30.63S
$$

COZ069>075-300800-
...SAN LUIS VALLEY/SANGRE DE CRISTO MOUNTAINS...

CITY           SKY/WX    TMP DP  RH WIND       PRES   REMARKS
ALAMOSA        CLEAR     52  43  71 E8        30.35R
LA VETA PASS   CLEAR     52  37  58 S10       30.52S
SAGUACHE       PTCLDY    55  43  62 N5        30.39S
$$

COZ035-036-038>040-300800-
...NORTHERN COLORADO FRONT RANGE...

CITY           SKY/WX    TMP DP  RH WIND       PRES   REMARKS
DENVER INTL AP PTCLDY    71  38  29 S21       30.11F
DMNS CITY PARK   N/A     72  38  29 SE14      30.11S
AURORA         PTCLDY    69  39  32 S16       30.14S
FRONT RANGE AP NOT AVBL
ERIE MUNI ARPT CLEAR     65  44  46 CALM      30.09S
BOULDER MUN AP CLEAR     68  43  40 CALM      30.09F
CENTENNIAL     PTCLDY    67  39  35 S10       30.16F
BROOMFIELD     CLEAR     70  45  40 S6        30.12F
FORT COLLINS   PTCLDY    63  48  59 N7        30.10S
LONGMONT       PTCLDY    62  47  58 CALM      30.10S
$$

COZ041-046-047-076>085-087-088-300800-
...PIKES PEAK/PALMER DIVIDE AND SOUTHERN FOOTHILLS...

CITY           SKY/WX    TMP DP  RH WIND       PRES   REMARKS
COLO. SPRINGS  PTCLDY    62  38  40 NE9       30.24F
A. F. ACADEMY  CLEAR     62  38  40 N6        30.25F
ELLICOTT       CLEAR    N/A N/A N/A SE12      30.22F
FALCON         CLEAR     59  39  48 MISG      30.30S
FORT CARSON    MOCLDY    58  42  55 N9        30.20F
LIMON          CLEAR     57  42  57 SE8       30.19F
MONUMENT HILL  CLEAR     61  37  41 S15       30.27S
TRINIDAD       CLEAR     62  46  55 N5        30.23F
$$

COZ042>045-048>051-090-091-300800-
...NORTHEAST COLORADO...

CITY           SKY/WX    TMP DP  RH WIND       PRES   REMARKS
GREELEY ARPT   PTCLDY    64  45  48 E6        30.08F
AKRON          CLEAR     66  42  41 S14       30.12F
BURLINGTON     CLEAR     61  45  55 S10       30.15F
WRAY           CLEAR     65  44  46 W5        30.09F
STERLING       CLEAR     61  43  51 S8        30.07S
HOLYOKE        CLEAR     59  48  67 S9        30.10S
FORT MORGAN    CLEAR     65  39  38 SE8       30.10F
$$

COZ086-089-092>099-300800-
...SOUTHEAST COLORADO...

CITY           SKY/WX    TMP DP  RH WIND       PRES   REMARKS
PUEBLO         CLEAR     68  43  40 E9        30.11F
LA JUNTA       CLEAR     73  43  33 S7        30.13F
LAMAR          CLEAR     68  46  45 S14       30.10F
SPRINGFIELD    NOT AVBL
$$



USA.gov is the U.S. government's official web portal to all federal, state and local government web resources and services.